This is the latest recevied weather packets stored in our database for station/object OK2BOZ-1. If no packets are shown the sender has not sent any weather packets the latest 10 day(s).
| Time | Temp. | Humidity | Pressure | Rain* | Wind** | Luminosity | Snow |
|---|---|---|---|---|---|---|---|
| 1777198820 | 16.67° C | 35% | 1021.1 hPa | - | - | - | - |
| 1777198505 | 16.11° C | 35% | 1021.1 hPa | - | - | - | - |
| 1777198190 | 16.11° C | 34% | 1021.1 hPa | - | - | - | - |
| 1777197876 | 15° C | 35% | 1021.1 hPa | - | - | - | - |
| 1777197561 | 14.44° C | 36% | 1021 hPa | - | - | - | - |
| 1777197246 | 14.44° C | 35% | 1021.1 hPa | - | - | - | - |
| 1777196933 | 13.89° C | 36% | 1021.1 hPa | - | - | - | - |
| 1777196617 | 15° C | 38% | 1021 hPa | - | - | - | - |
| 1777196303 | 13.89° C | 36% | 1021.1 hPa | - | - | - | - |
| 1777195988 | 13.89° C | 38% | 1020.9 hPa | - | - | - | - |
| 1777195673 | 14.44° C | 36% | 1020.9 hPa | - | - | - | - |
| 1777195359 | 14.44° C | 37% | 1020.9 hPa | - | - | - | - |
| 1777195044 | 14.44° C | 37% | 1020.9 hPa | - | - | - | - |
| 1777194730 | 12.78° C | 40% | 1020.8 hPa | - | - | - | - |
| 1777194416 | 12.22° C | 39% | 1020.8 hPa | - | - | - | - |
| 1777194101 | 13.33° C | 39% | 1020.9 hPa | - | - | - | - |
| 1777193788 | 14.44° C | 38% | 1020.6 hPa | - | - | - | - |
| 1777193473 | 14.44° C | 39% | 1020.6 hPa | - | - | - | - |
| 1777193158 | 13.89° C | 39% | 1020.6 hPa | - | - | - | - |
| 1777192842 | 14.44° C | 38% | 1020.5 hPa | - | - | - | - |
| 1777192528 | 14.44° C | 39% | 1020.5 hPa | - | - | - | - |
| 1777192213 | 15° C | 38% | 1020.5 hPa | - | - | - | - |
| 1777191898 | 15° C | 38% | 1020.5 hPa | - | - | - | - |
| 1777191584 | 15.56° C | 39% | 1020.5 hPa | - | - | - | - |
| 1777191269 | 13.89° C | 39% | 1020.5 hPa | - | - | - | - |
* Rain since midnight (hover to see other rain measurements)
** Current wind speed in m/s (hover to see current wind gust speed)